• In Uzbekistan
  • List of Countries
  • For 7 days
  • Water Temperature
  • Satellite Maps
  • Weather Map
  • Weather Widgets
  • user-avatar
    Login

    Hourly Weather Dorog

    Today, 19 November, Sunday

    Time Temperature Precipitation Wind Pressure Humidity
    00:00 +2°C° 0 mm 3 mps 747 mmHg 80%
    01:00 +3°C° 0 mm 4 mps 746 mmHg 78%
    02:00 +3°C° 0 mm 4 mps 746 mmHg 78%
    03:00 +3°C° 0 mm 4 mps 745 mmHg 79%
    04:00 +3°C° 0 mm 4 mps 745 mmHg 79%
    05:00 +3°C° 0 mm 3 mps 745 mmHg 79%
    06:00 +3°C° 0 mm 3 mps 745 mmHg 79%
    07:00 +2°C° 0 mm 3 mps 745 mmHg 80%
    08:00 +3°C° 0 mm 3 mps 745 mmHg 75%
    09:00 +4°C° 0 mm 4 mps 745 mmHg 71%
    10:00 +5°C° 0 mm 4 mps 745 mmHg 67%
    11:00 +5°C° 0.4 mm 4 mps 744 mmHg 68%
    12:00 +5°C° 0.4 mm 4 mps 744 mmHg 70%
    13:00 +5°C° 0.4 mm 4 mps 744 mmHg 71%
    14:00 +5°C° 0.6 mm 4 mps 744 mmHg 74%
    15:00 +4°C° 0.6 mm 3 mps 744 mmHg 77%
    16:00 +4°C° 0.6 mm 3 mps 744 mmHg 80%
    17:00 +3°C° 0 mm 3 mps 744 mmHg 81%
    18:00 +3°C° 0 mm 3 mps 744 mmHg 82%
    19:00 +2°C° 0 mm 3 mps 744 mmHg 83%
    20:00 +2°C° 0 mm 3 mps 745 mmHg 81%
    21:00 +1°C° 0 mm 4 mps 745 mmHg 79%
    22:00 +1°C° 0 mm 4 mps 745 mmHg 77%
    23:00 +1°C° 0 mm 4 mps 745 mmHg 78%

    Tomorrow, 20 November, Monday

    Time Temperature Precipitation Wind Pressure Humidity
    00:00 +1°C° 0 mm 4 mps 745 mmHg 78%
    01:00 +1°C° 0 mm 5 mps 745 mmHg 78%
    02:00 +1°C° 0 mm 5 mps 745 mmHg 77%
    03:00 +1°C° 0 mm 5 mps 745 mmHg 76%
    04:00 +1°C° 0 mm 6 mps 745 mmHg 76%
    05:00 +1°C° 0 mm 6 mps 746 mmHg 75%
    06:00 +1°C° 0 mm 6 mps 746 mmHg 75%
    07:00 +1°C° 0 mm 6 mps 746 mmHg 75%
    08:00 +2°C° 0 mm 6 mps 747 mmHg 72%
    09:00 +3°C° 0 mm 7 mps 747 mmHg 68%
    10:00 +4°C° 0 mm 8 mps 748 mmHg 64%
    11:00 +4°C° 0 mm 8 mps 748 mmHg 62%
    12:00 +5°C° 0 mm 7 mps 748 mmHg 61%
    13:00 +5°C° 0 mm 7 mps 748 mmHg 59%
    14:00 +4°C° 0 mm 6 mps 748 mmHg 61%
    15:00 +5°C° 0 mm 5 mps 748 mmHg 63%
    16:00 +4°C° 0 mm 4 mps 748 mmHg 65%
    17:00 +4°C° 0 mm 4 mps 748 mmHg 67%
    18:00 +4°C° 0 mm 4 mps 748 mmHg 68%
    19:00 +3°C° 0 mm 4 mps 748 mmHg 70%
    20:00 +3°C° 0.1 mm 4 mps 748 mmHg 71%
    21:00 +3°C° 0.1 mm 3 mps 748 mmHg 72%
    22:00 +3°C° 0.1 mm 3 mps 747 mmHg 73%
    23:00 +3°C° 0.2 mm 3 mps 747 mmHg 74%

    Day after tomorrow, 21 November, Tuesday

    Time Temperature Precipitation Wind Pressure Humidity
    00:00 +3°C° 0.2 mm 3 mps 746 mmHg 75%
    01:00 +3°C° 0.2 mm 3 mps 746 mmHg 76%
    02:00 +3°C° 0.4 mm 3 mps 745 mmHg 77%
    03:00 +3°C° 0.4 mm 4 mps 744 mmHg 78%
    04:00 +3°C° 0.4 mm 4 mps 744 mmHg 79%
    05:00 +4°C° 0.2 mm 4 mps 744 mmHg 78%
    06:00 +3°C° 0.2 mm 5 mps 743 mmHg 77%
    07:00 +3°C° 0.2 mm 5 mps 743 mmHg 76%
    08:00 +5°C° 0.2 mm 5 mps 743 mmHg 76%
    09:00 +4°C° 0.2 mm 6 mps 743 mmHg 75%
    10:00 +5°C° 0.2 mm 6 mps 744 mmHg 75%
    11:00 +7°C° 0.2 mm 6 mps 744 mmHg 75%
    12:00 +7°C° 0.2 mm 6 mps 744 mmHg 74%
    13:00 +8°C° 0.2 mm 6 mps 744 mmHg 74%
    14:00 +8°C° 0.2 mm 5 mps 744 mmHg 76%
    15:00 +8°C° 0.2 mm 5 mps 744 mmHg 77%
    16:00 +8°C° 0.2 mm 5 mps 744 mmHg 79%
    17:00 +8°C° 0 mm 5 mps 744 mmHg 78%
    18:00 +8°C° 0 mm 5 mps 744 mmHg 77%
    19:00 +8°C° 0 mm 6 mps 744 mmHg 76%
    20:00 +7°C° 0 mm 5 mps 745 mmHg 78%
    21:00 +7°C° 0 mm 5 mps 745 mmHg 79%
    22:00 +7°C° 0 mm 5 mps 745 mmHg 81%
    23:00 +7°C° 0 mm 4 mps 745 mmHg 82%

    22 November, Wednesday

    Time Temperature Precipitation Wind Pressure Humidity
    00:00 +7°C° 0 mm 4 mps 745 mmHg 84%
    01:00 +6°C° 0 mm 4 mps 745 mmHg 86%
    02:00 +6°C° 0 mm 4 mps 745 mmHg 87%
    03:00 +7°C° 0 mm 3 mps 745 mmHg 87%
    04:00 +7°C° 0 mm 3 mps 746 mmHg 88%
    05:00 +7°C° 0 mm 2 mps 746 mmHg 88%
    06:00 +6°C° 0 mm 2 mps 746 mmHg 89%
    07:00 +6°C° 0 mm 2 mps 746 mmHg 89%
    08:00 +7°C° 0 mm 2 mps 747 mmHg 83%
    09:00 +8°C° 0 mm 2 mps 747 mmHg 78%
    10:00 +9°C° 0 mm 3 mps 747 mmHg 72%
    11:00 +10°C° 0 mm 2 mps 747 mmHg 68%
    12:00 +12°C° 0 mm 2 mps 747 mmHg 64%
    13:00 +13°C° 0 mm 2 mps 747 mmHg 61%
    14:00 +12°C° 0 mm 2 mps 747 mmHg 65%
    15:00 +10°C° 0 mm 2 mps 747 mmHg 70%
    16:00 +10°C° 0 mm 1 mps 747 mmHg 75%
    17:00 +10°C° 0 mm 1 mps 747 mmHg 79%
    18:00 +9°C° 0 mm 1 mps 747 mmHg 82%
    19:00 +8°C° 0 mm 1 mps 747 mmHg 86%
    20:00 +8°C° 0 mm 1 mps 747 mmHg 86%
    21:00 +8°C° 0 mm 1 mps 748 mmHg 87%
    22:00 +8°C° 0 mm 1 mps 748 mmHg 88%
    23:00 +7°C° 0 mm 1 mps 748 mmHg 88%

    23 November, Thursday

    Time Temperature Precipitation Wind Pressure Humidity
    00:00 +7°C° 0 mm 1 mps 748 mmHg 89%
    01:00 +7°C° 0 mm 1 mps 748 mmHg 89%
    02:00 +7°C° 0 mm 1 mps 748 mmHg 89%
    03:00 +7°C° 0 mm 1 mps 748 mmHg 90%
    04:00 +6°C° 0 mm 1 mps 748 mmHg 90%
    05:00 +6°C° 0 mm 1 mps 748 mmHg 91%
    06:00 +5°C° 0 mm 2 mps 749 mmHg 92%
    07:00 +5°C° 0 mm 2 mps 749 mmHg 92%
    08:00 +6°C° 0 mm 2 mps 749 mmHg 89%
    09:00 +7°C° 0 mm 3 mps 749 mmHg 86%
    10:00 +9°C° 0 mm 3 mps 750 mmHg 83%
    11:00 +10°C° 0 mm 3 mps 750 mmHg 79%
    12:00 +11°C° 0 mm 3 mps 750 mmHg 75%
    13:00 +12°C° 0 mm 4 mps 750 mmHg 71%
    14:00 +11°C° 0 mm 3 mps 750 mmHg 74%
    15:00 +11°C° 0 mm 3 mps 750 mmHg 77%
    16:00 +10°C° 0 mm 3 mps 750 mmHg 80%
    17:00 +10°C° 0 mm 3 mps 750 mmHg 80%
    18:00 +9°C° 0 mm 3 mps 750 mmHg 81%
    19:00 +9°C° 0 mm 3 mps 751 mmHg 82%
    20:00 +9°C° 0 mm 3 mps 751 mmHg 82%
    21:00 +9°C° 0 mm 3 mps 751 mmHg 83%
    22:00 +8°C° 0 mm 2 mps 751 mmHg 83%
    23:00 +8°C° 0 mm 2 mps 751 mmHg 85%

    24 November, Friday

    Time Temperature Precipitation Wind Pressure Humidity
    00:00 +7°C° 0 mm 2 mps 751 mmHg 87%
    01:00 +7°C° 0 mm 2 mps 751 mmHg 88%
    02:00 +7°C° 0 mm 2 mps 751 mmHg 90%
    03:00 +7°C° 0 mm 1 mps 751 mmHg 91%
    04:00 +7°C° 0 mm 1 mps 751 mmHg 92%
    05:00 +7°C° 0 mm 1 mps 752 mmHg 92%
    06:00 +7°C° 0 mm 1 mps 752 mmHg 92%
    07:00 +7°C° 0 mm 1 mps 752 mmHg 93%
    08:00 +8°C° 0 mm 1 mps 752 mmHg 90%
    09:00 +8°C° 0 mm 1 mps 752 mmHg 87%
    10:00 +9°C° 0 mm 1 mps 753 mmHg 84%
    11:00 +10°C° 0 mm 1 mps 752 mmHg 81%
    12:00 +10°C° 0 mm 2 mps 752 mmHg 78%
    13:00 +10°C° 0 mm 2 mps 752 mmHg 75%
    14:00 +10°C° 0 mm 2 mps 751 mmHg 78%
    15:00 +9°C° 0 mm 2 mps 751 mmHg 82%
    16:00 +8°C° 0 mm 2 mps 751 mmHg 85%
    17:00 +8°C° 0 mm 2 mps 751 mmHg 87%
    18:00 +8°C° 0 mm 2 mps 751 mmHg 89%
    19:00 +7°C° 0 mm 3 mps 751 mmHg 90%
    20:00 +7°C° 0 mm 3 mps 751 mmHg 90%
    21:00 +8°C° 0 mm 3 mps 751 mmHg 90%
    22:00 +8°C° 0 mm 3 mps 751 mmHg 90%
    23:00 +8°C° 0 mm 3 mps 751 mmHg 89%
    Show more